"Pseudo-MPEC" for C3ZQLJ2

Created 2020 Nov 22 15:07:15 UT using Find_Orb

Click here for an explanation of pseudo-MPECs

 
 Astrometry: 
     C3ZQLJ2  C2020 11 20.36882809 49 14.15 +50 29 14.8    ~BK9b 19.65GVNEOCPG96
     C3ZQLJ2  C2020 11 20.37584109 49 16.19 +50 28 37.1    ~BK9b 19.77GVNEOCPG96
     C3ZQLJ2  C2020 11 20.38287109 49 18.21 +50 27 59.4    ~BK9b 19.94GVNEOCPG96
     C3ZQLJ2  C2020 11 20.38988409 49 20.20 +50 27 21.7    ~BK9b 19.70GVNEOCPG96
     C3ZQLJ2 mC2020 11 20.51063309 49 53.89 +50 16 25.4    ~BKCb 20.02GVNEOCPI52
     C3ZQLJ2 mC2020 11 20.51116909 49 54.05 +50 16 22.5    ~BKCb 20.13GVNEOCPI52
     C3ZQLJ2 mC2020 11 20.51170509 49 54.21 +50 16 19.8    ~BKCb 20.14GVNEOCPI52
     C3ZQLJ2 mC2020 11 20.51224209 49 54.33 +50 16 16.6    ~BKCb 19.92GVNEOCPI52
     C3ZQLJ2 KC2020 11 20FJ%D=2+@YA)i0H!r*LOZU5.`5W3p0[+0+0THw9BVZKyksT=Xml[\K61
     C3ZQLJ2 KC2020 11 20vKWcBBD',O8;QiTsyiyy4rSQ*4xQI[Qy,cb(_,0E5`fko`D89CL1K61
     C3ZQLJ2 KC2020 11 20QWpe0GhERh+oP4TAstrometry7DTL:mEc-i!F3'1_']I(Kn59y*jK61
     C3ZQLJ2 KC2020 11 20g9[em-ea0K-L-g.?+GFhp)9d-=w+o2pb?\$tFO[FUi3c.r0.`7TDK61
     C3ZQLJ2 1C2020 11 20.92688 09 51 58.53 +49 36 42.5    ~BLAq 20.2 VVNEOCP033
     C3ZQLJ2 1C2020 11 20.92769 09 51 58.77 +49 36 38.1    ~BLAq 20.4 VVNEOCP033
     C3ZQLJ2 1C2020 11 20.92850 09 51 59.01 +49 36 33.5    ~BLAq 20.4 VVNEOCP033
     C3ZQLJ2 KC2020 11 21/ab28G'J=DCSHqQSF,v4J^,4lG;^!9mUYT;Xt_UMaM'lZNRV:H7`595
     C3ZQLJ2 bC2020 11 21o,DJylfUKt1fR+%.3@5:2oB?K^A?-2%Vr$'rpm'Ah8btDA\1bqKNL01
     C3ZQLJ2 bC2020 11 21@nmERid9Uredacted;DpNHwD'9fs!aqCw(_ITgiH55T$SnYwdaE;L01
     C3ZQLJ2 bC2020 11 21a=9BWp2Ag/pHg$6WKFZ)yNbwl$va?n!bK[X7yG@oobM+sS0?49VoL01
     C3ZQLJ2 bC2020 11 21cZF$y:%;?`MVM#]vMyJ2rWCkE6/blY%L%)?cA8#ontBLWry0B1(TL01
     C3ZQLJ2 bC2020 11 21.syE\a7o@t$DmAe+x4Tr0))%9%juYyHYD+t5;SOswv:=(lQ\ebnkL01
     C3ZQLJ2 bC2020 11 21AbJe]*d,=bk7xE,+t%]qsSf+i+G+Sl;=kS!V9r*UJ)bV$AmOoG(5L01
     C3ZQLJ2 KC2020 11 21Rq@VsF\icMBd]5(0s8ZTju]UD*7Y]by7s]!(^e?sHOF`dHnT)i88595
     C3ZQLJ2 KC2020 11 21.12088409 52 54.95 +49 18 28.6    ~BL3b 20.1 GVNEOCPI93
     C3ZQLJ2 KC2020 11 21.12727909 52 56.77 +49 17 52.0    ~BL3b 20.0 GVNEOCPI93
     C3ZQLJ2 KC2020 11 21.13396309 52 58.63 +49 17 13.9    ~BL3b 19.7 GVNEOCPI93
     C3ZQLJ2 mC2020 11 21.35885909 54 05.82 +48 55 15.9    ~BL8q 21.06GVNEOCPV06
     C3ZQLJ2 mC2020 11 21.35930309 54 05.89 +48 55 13.5    ~BL8q 20.41GVNEOCPV06
     C3ZQLJ2 mC2020 11 21.35975909 54 06.01 +48 55 10.3    ~BL8q 20.24GVNEOCPV06
     C3ZQLJ2 mC2020 11 21.36022409 54 06.13 +48 55 08.1    ~BL8q 20.22GVNEOCPV06
     C3ZQLJ2 1C2020 11 21.99756 09 57 10.00 +47 50 56.3    ~BM8q 20.3 VVNEOCP033
     C3ZQLJ2 1C2020 11 21.99866 09 57 10.29 +47 50 49.5    ~BM8q 20.4 VVNEOCP033
     C3ZQLJ2 1C2020 11 21.99975 09 57 10.62 +47 50 42.9    ~BM8q 20.5 VVNEOCP033
     C3ZQLJ2 1C2020 11 22hvPG38GJ1tbe6cmN(g!*pGDZo8ix\'7JWAqk3roDlW0\tWdWDea;246
     C3ZQLJ2 1C2020 11 22f`O6xhZyY*WH4N=XuOhW#Fv4D;P9(6i4click-`oa@St/@.^]AYf246
     C3ZQLJ2 1C2020 11 22cjDcfX.(.!dDj\3RB\9b51]EQE]h@pU*`hereSm'1U/tWs!U+-Qg246
     C3ZQLJ2 1C2020 11 22FnW1QVbP9Qq/`UI9HPJX9Dif=DuRMjRAGdL#Lp#MY=((V+Y'=L%,246
     C3ZQLJ2 1C2020 11 229v*4y\;Ci\D-bGYeq7lPTuXeZkFwrKfor]1gyU$;xGQvT:wgYn$K246
     C3ZQLJ2 1C2020 11 22D3VxZD1tIn_%6^4nSf;+bIy_6XSo]Q(^bZrdX^8[RQ;B5OjC+(XT246
     C3ZQLJ2 1C2020 11 22'k_K:B#vZeV-)hku#wLt;Hd^dpfv$G:I,fc)C_=bo$k7o@;Gl3Aa246
     C3ZQLJ2 KC2020 11 22[+yUfv44j7tVUWy:OadS,UIpJr^k4?P4s,Ith91=pfNI[#eEWKTZK38
     C3ZQLJ2 KC2020 11 22RK*JcO^\%rUeM$_oqfh];7V=O(rcZwG^:vwvIRgv0'F(x2J5'TrKK38
     C3ZQLJ2 KC2020 11 22OwmZt:shkpeG?q4p[odm(4)0P70Ib9#:,8h!1Wl[B99'ptwf8joMK38
     C3ZQLJ2 KC2020 11 22MYWdiZ'\8AiP/j;@6vbOvUVGP-3hR\o%;'D^;%AS0]cTx*jNls%H204
     C3ZQLJ2 KC2020 11 22)LR79tivDHk%FP@Kqt%[1ii0M3^s,cu5iM]o3Fr$%.ED%sI:+l)o204
     C3ZQLJ2 KC2020 11 22?p-9Khl:rQrBdr:iw2QBV1pZK!L/JF%Wexplanation9\('NwwNo204
     C3ZQLJ2 mC2020 11 22.42872909 59 13.43 +47 06 23.7    ~BMAb 19.34GVNEOCPI52
     C3ZQLJ2 mC2020 11 22.42932209 59 13.59 +47 06 20.0    ~BMAb 19.40GVNEOCPI52
     C3ZQLJ2 mC2020 11 22.42991609 59 13.74 +47 06 16.2    ~BMAb 19.23GVNEOCPI52

Station data:
(033) Karl Schwarzschild Observatory, Tautenburg  (N50.980140 E11.711240)
   Germany. 1.3-m Schmidt.
(204) Schiaparelli Observatory  (N45.867933 E8.770800)  Italy.  Observer L.
   Buzzi. 0.60-m f/4.64 Newtonian + CCD.
(246) Klet Observatory-KLENOT  (N48.863293 E14.288100)  Czech Republic.
   1.06-m KLENOT telescope.
(595) Farra d'Isonzo  (N45.915734 E13.525780)  Italy.  Observers L.
   Bittesini, F. Fabris, E. Pettarin, F. Piani. Measurer E. Pettarin. 0.30-m
   f/4.5 reflector + CCD.
(G96) Mt. Lemmon Survey  (N32.442754 W110.788720)  US/Arizona.  Observers T.
   A. Pruyne, B. M. Africano, E. J. Christensen, G. A. Farneth, D. C. Fuls,
   A. R. Gibbs, A. D. Grauer, H. Gröller, J. A. Johnson, R. A. Kowalski, S.
   M. Larson, G. J. Leonard, D. Rankin, R. L. Seaman, F. C. Shelly. 1.5-m
   reflector + 10K CCD.
(I52) Steward Observatory, Mt. Lemmon Station  (N32.442547 W110.788920)
   US/Arizona.  Observers T. A. Pruyne, B. M. Africano, E. J. Christensen, G.
   A. Farneth, D. C. Fuls, A. R. Gibbs, A. D. Grauer, H. Gröller, J. A.
   Johnson, R. A. Kowalski, S. M. Larson, G. J. Leonard, D. Rankin, R. L.
   Seaman, F. C. Shelly. 1.0-m reflector + CCD.
(I93) St Pardon de Conques  (N44.558710 W0.203000)  France.  Observer F.
   Losse. 0.40-m f/3.7 reflector + CCD.
(K38) M57 Observatory, Saltrio  (N45.873785 E8.918240)  Italy.
(K61) Rokycany Observatory  (N49.751403 E13.602600)  Czech Republic.
   Observer M. Adamovsky. 0.51-m f/6.8 reflector + CCD.
(L01) Višnjan Observatory, Tičan  (N45.290900 E13.749300)  Croatia.
   Observers K. Korlević, E. Pettarin. Measurer E. Pettarin. 1.0-m f/2.9
   reflector + CCD.
(V06) Catalina Sky Survey-Kuiper  (N32.416847 W110.732550)  US/Arizona.
   Observers T. A. Pruyne, B. M. Africano, E. J. Christensen, G. A. Farneth,
   D. C. Fuls, A. R. Gibbs, A. D. Grauer, H. Gröller, J. A. Johnson, R. A.
   Kowalski, S. M. Larson, G. J. Leonard, D. Rankin, R. L. Seaman, F. C.
   Shelly. 1.55-m reflector + CCD.

Orbital elements:  C3ZQLJ2
   Perihelion 2021 Jan 21.209543 +/- 2.2 TT =  5:01:44 (JD 2459235.709543)
Epoch 2020 Nov 22.0 TT = JDT 2459175.5   Earth MOID: 0.0083   AutoNEOCP
M 313.27745080 +/- 3.2              (J2000 ecliptic)
n   0.77599906 +/- 0.0266           Peri.  232.40837 +/- 2.4
a   1.17281249 +/- 0.0268           Node   261.48163 +/- 0.39
e   0.2103014 +/- 0.0164            Incl.   18.78498 +/- 0.8
P   1.27/463.91d           H 21.6   G  0.15   U 10.3  
q 0.92616829 +/- 0.00346    Q 1.41945669 +/- 0.0518
From 49 observations 2020 Nov. 20-22; mean residual 5".26
Residuals in arcseconds: 
201120 G96  7.4-  3.7+    201121 L01  2.1-  1.3+    201122 246  .01+  1.5+    
201120 G96  6.9-  3.2+    201121 L01  2.4-  1.2+    201122 246  .31-  2.5+    
201120 G96  6.7-  2.8+    201121 L01  2.6-  1.3+    201122 246  .69-  1.2+    
201120 G96  6.6-  2.5+    201121 L01  2.5-  1.5+    201122 246  .67-  1.5+    
201120 I52  .60-  1.2-    201121 L01  1.9-  .40+    201122 246  .74-  2.1+    
201120 I52  .45-  1.2-    201121 595  1.3-  1.7+    201122 246  .38-  1.4+    
201120 I52  .29-  .91-    201121 I93  1.8-  .80+    201122 K38  1.3-  .52+    
201120 I52  .52-  1.2-    201121 I93  1.2-  .47+    201122 K38  .04+  .19+    
201120 K61 19.4+ 11.9-    201121 I93  .94-  .32+    201122 K38  .16-  .52-    
201120 K61 19.0+ 11.8-    201121 V06  3.6-  .89+    201122 204  2.4+  1.5-    
201120 K61 19.1+ 11.9-    201121 V06  4.1-  1.0+    201122 204  2.8+  1.7-    
201120 K61 19.1+ 12.4-    201121 V06  4.2-  .41+    201122 204  2.9+  1.7-    
201120 033  3.5-  6.9+    201121 V06  4.3-  .86+    201122 I52  .78-  2.6-    
201120 033  3.5-  7.0+    201121 033  .98-  2.8+    201122 I52  .75-  2.6-    
201120 033  3.5-  6.9+    201121 033  1.2-  2.6+    201122 I52  .82-  2.7-    
201121 595  3.4-  4.1+    201121 033  .97-  2.6+    
201121 L01  2.2-  1.7+    201122 246  .21-  1.6+    

Ephemerides (geocentric):
Date (UTC) HH   RA              Dec         delta   r     elong  mag " sig PA
---- -- -- --  -------------   -----------  ------ ------ -----  --- ---- ---
2020 11 22 15  10 00 06.180   +46 45 28.76  .15791 1.0358 103.5 20.1 1.18  68
2020 11 22 16  10 00 18.019   +46 41 00.50  .15769 1.0357 103.5 20.1 1.18  62
2020 11 22 17  10 00 29.850   +46 36 31.47  .15748 1.0355 103.4 20.1 1.18  57
2020 11 22 18  10 00 41.670   +46 32 01.66  .15727 1.0354 103.4 20.1 1.20  51
2020 11 22 19  10 00 53.482   +46 27 31.07  .15706 1.0353 103.4 20.1 1.23  45
2020 11 22 20  10 01 05.284   +46 22 59.70  .15685 1.0352 103.4 20.1 1.27  39
2020 11 22 21  10 01 17.078   +46 18 27.55  .15664 1.0350 103.4 20.1 1.33  34
2020 11 22 22  10 01 28.861   +46 13 54.62  .15643 1.0349 103.4 20.1 1.40  29
2020 11 22 23  10 01 40.636   +46 09 20.90  .15622 1.0348 103.3 20.1 1.49  24
2020 11 23 00  10 01 52.402   +46 04 46.40  .15602 1.0346 103.3 20.1 1.58  20
2020 11 23 01  10 02 04.158   +46 00 11.10  .15581 1.0345 103.3 20.1 1.69  16
2020 11 23 02  10 02 15.905   +45 55 35.02  .15560 1.0344 103.3 20.1 1.81  12
2020 11 23 03  10 02 27.643   +45 50 58.14  .15539 1.0342 103.3 20.1 1.94   9
2020 11 23 04  10 02 39.372   +45 46 20.46  .15518 1.0341 103.3 20.1 2.07   6
2020 11 23 05  10 02 51.092   +45 41 41.99  .15497 1.0340 103.2 20.1 2.22   4
2020 11 23 06  10 03 02.802   +45 37 02.72  .15477 1.0338 103.2 20.1 2.37   1
2020 11 23 07  10 03 14.504   +45 32 22.64  .15456 1.0337 103.2 20.1 2.54 179
2020 11 23 08  10 03 26.196   +45 27 41.76  .15435 1.0336 103.2 20.1 2.71 177
2020 11 23 09  10 03 37.880   +45 23 00.08  .15415 1.0335 103.2 20.1 2.88 176
2020 11 23 10  10 03 49.554   +45 18 17.59  .15394 1.0333 103.1 20.1 3.07 174
2020 11 23 11  10 04 01.220   +45 13 34.29  .15373 1.0332 103.1 20.1 3.25 173
2020 11 23 12  10 04 12.876   +45 08 50.18  .15353 1.0331 103.1 20.1 3.45 172
2020 11 23 13  10 04 24.524   +45 04 05.26  .15332 1.0329 103.1 20.1 3.65 171
2020 11 23 14  10 04 36.162   +44 59 19.52  .15312 1.0328 103.1 20.0 3.86 170
2020 11 23 15  10 04 47.792   +44 54 32.96  .15291 1.0327 103.0 20.0 4.08 169
2020 11 23 16  10 04 59.413   +44 49 45.58  .15271 1.0325 103.0 20.0 4.30 168
2020 11 23 17  10 05 11.024   +44 44 57.38  .15251 1.0324 103.0 20.0 4.53 167
2020 11 23 18  10 05 22.627   +44 40 08.36  .15230 1.0323 103.0 20.0 4.76 166
2020 11 23 19  10 05 34.221   +44 35 18.52  .15210 1.0322 103.0 20.0 5.00 166
2020 11 23 20  10 05 45.806   +44 30 27.84  .15189 1.0320 103.0 20.0 5.24 165
2020 11 23 21  10 05 57.383   +44 25 36.34  .15169 1.0319 102.9 20.0 5.49 164
2020 11 23 22  10 06 08.950   +44 20 44.01  .15149 1.0318 102.9 20.0 5.75 164
2020 11 23 23  10 06 20.509   +44 15 50.84  .15129 1.0316 102.9 20.0 6.01 163
2020 11 24 00  10 06 32.059   +44 10 56.84  .15109 1.0315 102.9 20.0 6.28 163
2020 11 24 01  10 06 43.600   +44 06 02.00  .15088 1.0314 102.9 20.0 6.56 162
2020 11 24 02  10 06 55.132   +44 01 06.32  .15068 1.0312 102.8 20.0 6.84 162
2020 11 24 03  10 07 06.656   +43 56 09.80  .15048 1.0311 102.8 20.0 7.12 162
2020 11 24 04  10 07 18.171   +43 51 12.44  .15028 1.0310 102.8 20.0 7.42 161
2020 11 24 05  10 07 29.677   +43 46 14.23  .15008 1.0309 102.8 20.0 7.71 161
2020 11 24 06  10 07 41.175   +43 41 15.18  .14988 1.0307 102.8 20.0 8.02 161
2020 11 24 07  10 07 52.664   +43 36 15.27  .14968 1.0306 102.7 20.0 8.33 160
2020 11 24 08  10 08 04.144   +43 31 14.52  .14948 1.0305 102.7 20.0 8.64 160
2020 11 24 09  10 08 15.616   +43 26 12.91  .14928 1.0303 102.7 20.0 8.97 160
2020 11 24 10  10 08 27.079   +43 21 10.45  .14908 1.0302 102.7 20.0 9.30 160
2020 11 24 11  10 08 38.533   +43 16 07.14  .14888 1.0301 102.6 20.0 9.63 159
2020 11 24 12  10 08 49.979   +43 11 02.96  .14869 1.0300 102.6 20.0 9.97 159
2020 11 24 13  10 09 01.417   +43 05 57.93  .14849 1.0298 102.6 20.0 10.3 159
2020 11 24 14  10 09 12.846   +43 00 52.03  .14829 1.0297 102.6 20.0 10.7 159